| time (UTC) | temp F | wind direction | speed knots | gust knots | rain 1hr in | rain 24hr in | rain mn in | humidity % | barometer mb |
| 20260905084835 | 51 | 59 | 0.0 | 0.0 | 0.00 | 0.00 | 0.00 | 72 | 933.2 |
| 20260905084334 | 52 | 47 | 0.0 | 0.0 | 0.00 | 0.00 | 0.00 | 70 | 932.9 |
| 20260905083829 | 53 | 66 | 0.0 | 0.0 | 0.00 | 0.00 | 0.00 | 68 | 932.9 |
| 20260905083325 | 53 | 65 | 0.0 | 0.0 | 0.00 | 0.00 | 0.00 | 68 | 933.1 |
| 20260905082820 | 53 | 65 | 0.0 | 0.0 | 0.00 | 0.00 | 0.00 | 68 | 932.9 |
| 20260905082316 | 52 | 75 | 0.0 | 0.0 | 0.00 | 0.00 | 0.00 | 69 | 932.9 |
| 20260905081811 | 52 | 83 | 0.0 | 0.0 | 0.00 | 0.00 | 0.00 | 69 | 932.9 |
| 20260905081306 | 52 | 75 | 0.0 | 0.0 | 0.00 | 0.00 | 0.00 | 69 | 932.9 |
| 20260905080805 | 52 | 90 | 0.0 | 0.0 | 0.00 | 0.00 | 0.00 | 69 | 932.8 |
| 20260905080306 | 53 | 53 | 0.0 | 0.0 | 0.00 | 0.00 | 0.00 | 68 | 932.8 |
| 20260905075804 | 53 | 50 | 0.0 | 0.0 | 0.00 | 0.00 | 0.00 | 67 | 933.1 |
| 20260905075306 | 54 | 71 | 0.0 | 0.0 | 0.00 | 0.00 | 0.00 | 66 | 932.6 |
| 20260905074803 | 54 | 74 | 0.0 | 0.0 | 0.00 | 0.00 | 0.00 | 66 | 932.7 |
| 20260905074259 | 54 | 90 | 0.0 | 0.0 | 0.00 | 0.00 | 0.00 | 66 | 932.8 |
| 20260905073754 | 54 | 95 | 0.0 | 0.0 | 0.00 | 0.00 | 0.00 | 65 | 932.7 |
| 20260905073250 | 54 | 95 | 0.0 | 0.0 | 0.00 | 0.00 | 0.00 | 65 | 932.7 |
| 20260905072749 | 55 | 77 | 0.0 | 0.0 | 0.00 | 0.00 | 0.00 | 65 | 932.7 |
| 20260905072245 | 55 | 78 | 0.0 | 0.0 | 0.00 | 0.00 | 0.00 | 64 | 932.4 |
| 20260905071741 | 55 | 78 | 0.0 | 0.0 | 0.00 | 0.00 | 0.00 | 64 | 932.8 |
| 20260905071237 | 54 | 70 | 0.0 | 0.0 | 0.00 | 0.00 | 0.00 | 65 | 932.6 |
| 20260905070732 | 54 | 45 | 0.0 | 0.0 | 0.00 | 0.00 | 0.00 | 66 | 932.5 |
| 20260905070228 | 54 | 45 | 0.0 | 0.0 | 0.00 | 0.00 | 0.00 | 65 | 932.4 |
| 20260905065726 | 55 | 58 | 0.0 | 0.0 | 0.00 | 0.00 | 0.00 | 65 | 932.1 |
| 20260905065221 | 55 | 64 | 0.0 | 0.0 | 0.00 | 0.00 | 0.00 | 63 | 932.1 |
| 20260905064716 | 55 | 87 | 0.0 | 0.0 | 0.00 | 0.00 | 0.00 | 64 | 932.4 |
| 20260905064212 | 56 | 78 | 0.0 | 0.0 | 0.00 | 0.00 | 0.00 | 60 | 932.1 |
| 20260905063710 | 55 | 80 | 0.0 | 0.0 | 0.00 | 0.00 | 0.00 | 61 | 932.1 |
| 20260905063207 | 56 | 71 | 0.0 | 0.0 | 0.00 | 0.00 | 0.00 | 61 | 932.3 |
| 20260905062702 | 56 | 71 | 0.0 | 0.0 | 0.00 | 0.00 | 0.00 | 60 | 932.0 |
| 20260905062201 | 56 | 102 | 0.0 | 0.0 | 0.00 | 0.00 | 0.00 | 60 | 932.4 |
| 20260905061656 | 56 | 78 | 0.0 | 0.0 | 0.00 | 0.00 | 0.00 | 59 | 932.1 |
| 20260905061155 | 57 | 64 | 0.0 | 0.0 | 0.00 | 0.00 | 0.00 | 58 | 932.0 |
| 20260905060651 | 57 | 68 | 0.0 | 0.0 | 0.00 | 0.00 | 0.00 | 57 | 932.0 |
| 20260905060148 | 58 | 82 | 0.0 | 0.0 | 0.00 | 0.00 | 0.00 | 56 | 931.8 |
| 20260905055646 | 58 | 69 | 0.0 | 0.0 | 0.00 | 0.00 | 0.00 | 55 | 931.8 |
| 20260905055141 | 59 | 115 | 0.0 | 0.0 | 0.00 | 0.00 | 0.00 | 54 | 931.8 |
| 20260905054637 | 60 | 111 | 0.0 | 0.0 | 0.00 | 0.00 | 0.00 | 51 | 931.9 |
| 20260905054132 | 60 | 74 | 0.0 | 0.0 | 0.00 | 0.00 | 0.00 | 52 | 931.8 |
| 20260905053632 | 60 | 111 | 0.0 | 0.0 | 0.00 | 0.00 | 0.00 | 51 | 931.8 |
| 20260905053127 | 60 | 141 | 0.0 | 0.9 | 0.00 | 0.00 | 0.00 | 50 | 931.7 |
| 20260905052626 | 60 | 129 | 0.0 | 0.0 | 0.00 | 0.00 | 0.00 | 51 | 931.5 |
| 20260905052121 | 60 | 86 | 0.0 | 1.7 | 0.00 | 0.00 | 0.00 | 51 | 931.7 |
| 20260905051617 | 60 | 27 | 0.0 | 0.0 | 0.00 | 0.00 | 0.00 | 50 | 931.5 |
| 20260905051114 | 59 | 354 | 0.0 | 0.0 | 0.00 | 0.00 | 0.00 | 51 | 931.6 |
| 20260905050609 | 59 | 40 | 0.0 | 0.0 | 0.00 | 0.00 | 0.00 | 52 | 931.3 |
| 20260905050106 | 60 | 67 | 0.0 | 0.0 | 0.00 | 0.00 | 0.00 | 51 | 931.3 |
| 20260905045606 | 60 | 94 | 0.0 | 5.2 | 0.00 | 0.00 | 0.00 | 50 | 931.3 |
| 20260905045102 | 60 | 148 | 0.0 | 0.0 | 0.00 | 0.00 | 0.00 | 49 | 931.6 |
| 20260905044601 | 61 | 56 | 0.0 | 0.0 | 0.00 | 0.00 | 0.00 | 48 | 931.7 |
| 20260905044056 | 61 | 89 | 0.0 | 0.0 | 0.00 | 0.00 | 0.00 | 48 | 931.9 |
| 20260905043555 | 61 | 119 | 0.0 | 0.0 | 0.00 | 0.00 | 0.00 | 47 | 931.8 |
| 20260905043051 | 61 | 128 | 0.0 | 0.0 | 0.00 | 0.00 | 0.00 | 47 | 932.0 |
| 20260905042549 | 60 | 89 | 0.0 | 0.0 | 0.00 | 0.00 | 0.00 | 48 | 932.0 |
| 20260905042044 | 60 | 47 | 0.0 | 0.0 | 0.00 | 0.00 | 0.00 | 49 | 932.0 |
| 20260905041540 | 61 | 51 | 0.0 | 0.0 | 0.00 | 0.00 | 0.00 | 48 | 931.9 |
| 20260905041035 | 61 | 53 | 0.0 | 0.0 | 0.00 | 0.00 | 0.00 | 49 | 931.6 |
| 20260905040535 | 61 | 55 | 0.0 | 0.0 | 0.00 | 0.00 | 0.00 | 48 | 931.8 |
| 20260905040033 | 62 | 80 | 0.0 | 0.0 | 0.00 | 0.00 | 0.00 | 46 | 931.7 |
| 20260905035529 | 62 | 84 | 0.0 | 0.0 | 0.00 | 0.00 | 0.00 | 45 | 931.7 |
| 20260905035026 | 63 | 80 | 0.0 | 0.0 | 0.00 | 0.00 | 0.00 | 45 | 931.7 |
| 20260905034522 | 64 | 87 | 0.0 | 0.0 | 0.00 | 0.00 | 0.00 | 43 | 931.7 |
| 20260905034021 | 63 | 62 | 0.0 | 0.0 | 0.00 | 0.00 | 0.00 | 44 | 931.6 |
| 20260905033521 | 63 | 67 | 0.0 | 0.0 | 0.00 | 0.00 | 0.00 | 44 | 931.6 |
| 20260905033017 | 63 | 87 | 0.0 | 0.9 | 0.00 | 0.00 | 0.00 | 45 | 931.8 |
| 20260905032511 | 64 | 79 | 0.0 | 0.0 | 0.00 | 0.00 | 0.00 | 44 | 931.7 |
| 20260905032007 | 65 | 71 | 0.0 | 0.0 | 0.00 | 0.00 | 0.00 | 41 | 931.3 |
| 20260905031502 | 65 | 71 | 0.0 | 0.0 | 0.00 | 0.00 | 0.00 | 40 | 931.6 |
| 20260905030957 | 65 | 107 | 0.0 | 0.0 | 0.00 | 0.00 | 0.00 | 41 | 931.1 |
| 20260905030452 | 65 | 90 | 0.0 | 0.0 | 0.00 | 0.00 | 0.00 | 41 | 931.2 |
| 20260905025951 | 66 | 165 | 0.0 | 0.0 | 0.00 | 0.00 | 0.00 | 40 | 931.2 |
| 20260905025447 | 66 | 73 | 0.0 | 0.0 | 0.00 | 0.00 | 0.00 | 39 | 931.1 |
| 20260905024943 | 66 | 61 | 0.0 | 0.0 | 0.00 | 0.00 | 0.00 | 39 | 931.0 |
| 20260905024443 | 67 | 65 | 0.0 | 0.0 | 0.00 | 0.00 | 0.00 | 38 | 931.0 |
| 20260905023939 | 68 | 115 | 0.0 | 0.0 | 0.00 | 0.00 | 0.00 | 37 | 931.1 |
| 20260905023434 | 67 | 95 | 0.0 | 0.0 | 0.00 | 0.00 | 0.00 | 39 | 931.0 |
| 20260905022933 | 67 | 65 | 0.0 | 0.0 | 0.00 | 0.00 | 0.00 | 40 | 930.9 |
| 20260905022428 | 69 | 61 | 0.0 | 0.0 | 0.00 | 0.00 | 0.00 | 41 | 930.9 |
| 20260905021923 | 69 | 60 | 0.0 | 0.0 | 0.00 | 0.00 | 0.00 | 41 | 930.8 |
| 20260905021424 | 71 | 60 | 0.0 | 0.0 | 0.00 | 0.00 | 0.00 | 37 | 930.8 |
| 20260905020919 | 71 | 61 | 0.0 | 0.0 | 0.00 | 0.00 | 0.00 | 33 | 930.9 |
| 20260905020418 | 73 | 61 | 0.0 | 0.0 | 0.00 | 0.00 | 0.00 | 31 | 931.0 |
| 20260905015918 | 73 | 104 | 0.0 | 0.0 | 0.00 | 0.00 | 0.00 | 29 | 930.9 |
| 20260905015416 | 74 | 102 | 0.0 | 0.0 | 0.00 | 0.00 | 0.00 | 29 | 930.8 |
| 20260905014916 | 74 | 163 | 0.0 | 0.0 | 0.00 | 0.00 | 0.00 | 28 | 930.9 |
| 20260905014412 | 75 | 174 | 0.0 | 0.0 | 0.00 | 0.00 | 0.00 | 28 | 931.0 |
| 20260905013912 | 76 | 169 | 0.0 | 1.7 | 0.00 | 0.00 | 0.00 | 27 | 930.8 |
| 20260905013408 | 77 | 253 | 0.0 | 0.0 | 0.00 | 0.00 | 0.00 | 26 | 930.7 |
| 20260905012903 | 77 | 175 | 0.0 | 0.0 | 0.00 | 0.00 | 0.00 | 26 | 930.4 |
| 20260905012358 | 77 | 236 | 0.0 | 7.8 | 0.00 | 0.00 | 0.00 | 25 | 930.9 |
| 20260905011855 | 77 | 170 | 0.0 | 4.3 | 0.00 | 0.00 | 0.00 | 25 | 930.8 |
| 20260905011350 | 78 | 200 | 0.0 | 1.7 | 0.00 | 0.00 | 0.00 | 25 | 930.8 |
| 20260905010846 | 78 | 323 | 0.0 | 2.6 | 0.00 | 0.00 | 0.00 | 26 | 930.8 |
| 20260905010341 | 78 | 278 | 0.0 | 7.0 | 0.00 | 0.00 | 0.00 | 25 | 930.9 |
| 20260905005837 | 78 | 345 | 0.0 | 0.0 | 0.00 | 0.00 | 0.00 | 26 | 930.9 |
| 20260905005333 | 79 | 235 | 7.8 | 11.3 | 0.00 | 0.00 | 0.00 | 24 | 931.1 |
| 20260905004828 | 80 | 312 | 0.0 | 6.1 | 0.00 | 0.00 | 0.00 | 25 | 931.2 |
| 20260905004322 | 80 | 252 | 0.0 | 6.1 | 0.00 | 0.00 | 0.00 | 24 | 931.3 |
| 20260905003818 | 80 | 244 | 5.2 | 11.3 | 0.00 | 0.00 | 0.00 | 24 | 931.3 |
| 20260905003314 | 80 | 248 | 0.9 | 6.1 | 0.00 | 0.00 | 0.00 | 24 | 931.1 |
| 20260905002809 | 80 | 209 | 0.9 | 1.7 | 0.00 | 0.00 | 0.00 | 24 | 931.1 |
| 20260905002309 | 80 | 188 | 2.6 | 9.6 | 0.00 | 0.00 | 0.00 | 25 | 931.2 |
| 20260905001804 | 80 | 218 | 2.6 | 6.1 | 0.00 | 0.00 | 0.00 | 24 | 931.3 |
| 20260905001303 | 80 | 236 | 1.7 | 13.0 | 0.00 | 0.00 | 0.00 | 24 | 931.7 |
| 20260905000759 | 80 | 213 | 3.5 | 11.3 | 0.00 | 0.00 | 0.00 | 24 | 931.5 |
| 20260905000255 | 80 | 215 | 7.0 | 13.0 | 0.00 | 0.00 | 0.00 | 24 | 931.2 |
| 20260904235749 | 81 | 188 | 0.9 | 13.9 | 0.00 | 0.00 | 0.00 | 24 | 931.3 |
| 20260904235244 | 81 | 253 | 2.6 | 13.0 | 0.00 | 0.00 | 0.00 | 24 | 931.3 |
| 20260904234739 | 81 | 287 | 5.2 | 11.3 | 0.00 | 0.00 | 0.00 | 24 | 931.2 |
| 20260904234234 | 81 | 212 | 6.1 | 9.6 | 0.00 | 0.00 | 0.00 | 24 | 930.8 |
| 20260904233730 | 81 | 242 | 7.0 | 12.2 | 0.00 | 0.00 | 0.00 | 24 | 930.9 |
| 20260904233226 | 80 | 216 | 4.3 | 8.7 | 0.00 | 0.00 | 0.00 | 24 | 930.9 |
| 20260904232723 | 80 | 199 | 2.6 | 7.0 | 0.00 | 0.00 | 0.00 | 24 | 931.0 |
| 20260904232219 | 81 | 250 | 13.0 | 15.6 | 0.00 | 0.00 | 0.00 | 23 | 930.8 |
| 20260904231714 | 81 | 233 | 4.3 | 11.3 | 0.00 | 0.00 | 0.00 | 24 | 931.0 |
| 20260904231209 | 81 | 234 | 0.9 | 12.2 | 0.00 | 0.00 | 0.00 | 24 | 930.8 |
| 20260904230708 | 81 | 343 | 0.9 | 7.0 | 0.00 | 0.00 | 0.00 | 24 | 930.8 |
| 20260904230203 | 81 | 246 | 5.2 | 9.6 | 0.00 | 0.00 | 0.00 | 24 | 930.8 |
| 20260904225701 | 81 | 237 | 7.8 | 12.2 | 0.00 | 0.00 | 0.00 | 24 | 930.9 |
| 20260904225156 | 81 | 211 | 4.3 | 11.3 | 0.00 | 0.00 | 0.00 | 25 | 930.9 |
| 20260904224651 | 81 | 251 | 5.2 | 9.6 | 0.00 | 0.00 | 0.00 | 24 | 931.1 |
| 20260904224150 | 81 | 211 | 7.8 | 9.6 | 0.00 | 0.00 | 0.00 | 23 | 931.2 |
| 20260904223650 | 81 | 253 | 3.5 | 17.4 | 0.00 | 0.00 | 0.00 | 25 | 931.0 |
| 20260904223145 | 81 | 151 | 0.0 | 5.2 | 0.00 | 0.00 | 0.00 | 25 | 930.8 |
| 20260904222641 | 81 | 231 | 0.9 | 13.9 | 0.00 | 0.00 | 0.00 | 25 | 930.9 |
| 20260904222137 | 80 | 267 | 7.8 | 15.6 | 0.00 | 0.00 | 0.00 | 25 | 931.0 |
| 20260904221637 | 81 | 225 | 7.8 | 13.9 | 0.00 | 0.00 | 0.00 | 24 | 931.0 |
| 20260904221137 | 81 | 239 | 3.5 | 14.8 | 0.00 | 0.00 | 0.00 | 24 | 931.0 |
| 20260904220632 | 81 | 16 | 1.7 | 9.6 | 0.00 | 0.00 | 0.00 | 24 | 931.3 |
| 20260904220127 | 80 | 279 | 4.3 | 6.1 | 0.00 | 0.00 | 0.00 | 25 | 931.2 |
| 20260904215621 | 80 | 249 | 11.3 | 17.4 | 0.00 | 0.00 | 0.00 | 25 | 931.3 |
| 20260904215117 | 81 | 237 | 7.8 | 13.9 | 0.00 | 0.00 | 0.00 | 24 | 931.1 |
| 20260904214617 | 80 | 291 | 7.0 | 12.2 | 0.00 | 0.00 | 0.00 | 24 | 931.6 |
| 20260904214113 | 80 | 249 | 6.1 | 12.2 | 0.00 | 0.00 | 0.00 | 24 | 931.5 |
| 20260904213611 | 80 | 251 | 5.2 | 8.7 | 0.00 | 0.00 | 0.00 | 24 | 931.2 |
| 20260904213108 | 81 | 248 | 6.1 | 11.3 | 0.00 | 0.00 | 0.00 | 24 | 931.3 |
| 20260904212607 | 81 | 272 | 4.3 | 13.9 | 0.00 | 0.00 | 0.00 | 24 | 931.3 |
| 20260904212103 | 79 | 187 | 0.9 | 12.2 | 0.00 | 0.00 | 0.00 | 25 | 931.5 |
| 20260904211602 | 80 | 255 | 11.3 | 14.8 | 0.00 | 0.00 | 0.00 | 24 | 931.5 |
| 20260904211058 | 79 | 220 | 4.3 | 20.0 | 0.00 | 0.00 | 0.00 | 25 | 931.1 |
| 20260904210557 | 79 | 245 | 7.0 | 15.6 | 0.00 | 0.00 | 0.00 | 24 | 931.3 |
| 20260904210053 | 79 | 211 | 6.1 | 13.9 | 0.00 | 0.00 | 0.00 | 25 | 931.1 |
| 20260904205548 | 79 | 222 | 8.7 | 17.4 | 0.00 | 0.00 | 0.00 | 24 | 931.2 |
| 20260904205045 | 80 | 185 | 0.9 | 9.6 | 0.00 | 0.00 | 0.00 | 25 | 931.2 |
| 20260904204541 | 80 | 189 | 4.3 | 8.7 | 0.00 | 0.00 | 0.00 | 25 | 931.5 |
| 20260904204036 | 79 | 163 | 2.6 | 19.1 | 0.00 | 0.00 | 0.00 | 25 | 931.2 |
| 20260904203532 | 80 | 222 | 7.8 | 15.6 | 0.00 | 0.00 | 0.00 | 24 | 931.6 |
| 20260904203028 | 79 | 202 | 7.0 | 13.9 | 0.00 | 0.00 | 0.00 | 24 | 931.5 |
| 20260904202524 | 79 | 245 | 4.3 | 14.8 | 0.00 | 0.00 | 0.00 | 24 | 931.6 |
| 20260904202020 | 79 | 174 | 7.8 | 9.6 | 0.00 | 0.00 | 0.00 | 24 | 931.5 |
| 20260904201515 | 79 | 253 | 6.1 | 13.0 | 0.00 | 0.00 | 0.00 | 23 | 931.5 |
| 20260904201010 | 80 | 201 | 7.8 | 15.6 | 0.00 | 0.00 | 0.00 | 25 | 931.5 |
| 20260904200509 | 80 | 213 | 8.7 | 13.9 | 0.00 | 0.00 | 0.00 | 24 | 931.3 |
| 20260904200004 | 78 | 192 | 6.1 | 17.4 | 0.00 | 0.00 | 0.00 | 25 | 931.7 |
| 20260904195502 | 78 | 201 | 9.6 | 13.0 | 0.00 | 0.00 | 0.00 | 24 | 931.7 |
| 20260904195001 | 78 | 222 | 10.4 | 17.4 | 0.00 | 0.00 | 0.00 | 24 | 931.7 |
| 20260904194457 | 78 | 208 | 5.2 | 8.7 | 0.00 | 0.00 | 0.00 | 25 | 931.7 |
| 20260904193951 | 78 | 179 | 5.2 | 13.9 | 0.00 | 0.00 | 0.00 | 25 | 931.7 |
| 20260904193447 | 78 | 183 | 9.6 | 12.2 | 0.00 | 0.00 | 0.00 | 25 | 931.9 |
| 20260904192942 | 77 | 227 | 7.0 | 12.2 | 0.00 | 0.00 | 0.00 | 24 | 931.7 |
| 20260904192437 | 77 | 240 | 0.9 | 11.3 | 0.00 | 0.00 | 0.00 | 25 | 931.7 |
| 20260904191933 | 77 | 253 | 7.0 | 11.3 | 0.00 | 0.00 | 0.00 | 25 | 931.8 |
| 20260904191430 | 77 | 187 | 9.6 | 14.8 | 0.00 | 0.00 | 0.00 | 25 | 931.8 |
| 20260904190926 | 77 | 184 | 7.8 | 15.6 | 0.00 | 0.00 | 0.00 | 25 | 932.3 |
| 20260904190426 | 77 | 208 | 3.5 | 13.0 | 0.00 | 0.00 | 0.00 | 25 | 932.1 |
| 20260904185923 | 77 | 199 | 13.0 | 17.4 | 0.00 | 0.00 | 0.00 | 24 | 932.0 |
| 20260904185418 | 77 | 201 | 7.8 | 11.3 | 0.00 | 0.00 | 0.00 | 25 | 932.3 |
| 20260904184913 | 76 | 240 | 7.8 | 13.0 | 0.00 | 0.00 | 0.00 | 25 | 932.1 |
| 20260904184408 | 76 | 212 | 11.3 | 20.0 | 0.00 | 0.00 | 0.00 | 25 | 932.1 |
| 20260904183903 | 76 | 207 | 6.1 | 9.6 | 0.00 | 0.00 | 0.00 | 25 | 932.6 |
| 20260904183358 | 76 | 234 | 8.7 | 12.2 | 0.00 | 0.00 | 0.00 | 25 | 932.3 |
| 20260904182854 | 76 | 245 | 1.7 | 7.8 | 0.00 | 0.00 | 0.00 | 26 | 932.4 |
| 20260904182354 | 76 | 228 | 4.3 | 13.9 | 0.00 | 0.00 | 0.00 | 25 | 932.8 |
| 20260904181849 | 76 | 337 | 1.7 | 15.6 | 0.00 | 0.00 | 0.00 | 26 | 932.6 |
| 20260904181343 | 75 | 246 | 5.2 | 9.6 | 0.00 | 0.00 | 0.00 | 26 | 932.5 |
| 20260904180839 | 75 | 239 | 7.8 | 9.6 | 0.00 | 0.00 | 0.00 | 24 | 932.5 |
| 20260904180334 | 75 | 213 | 0.9 | 17.4 | 0.00 | 0.00 | 0.00 | 27 | 932.4 |
| 20260904175833 | 75 | 128 | 4.3 | 13.0 | 0.00 | 0.00 | 0.00 | 26 | 932.5 |
| 20260904175334 | 75 | 178 | 7.8 | 13.9 | 0.00 | 0.00 | 0.00 | 25 | 932.7 |
| 20260904174826 | 75 | 242 | 4.3 | 13.0 | 0.00 | 0.00 | 0.00 | 25 | 932.6 |
| 20260904174322 | 75 | 157 | 7.8 | 13.0 | 0.00 | 0.00 | 0.00 | 25 | 932.5 |
| 20260904173818 | 74 | 227 | 5.2 | 7.8 | 0.00 | 0.00 | 0.00 | 26 | 932.5 |
| 20260904173313 | 75 | 313 | 4.3 | 9.6 | 0.00 | 0.00 | 0.00 | 26 | 932.4 |
| 20260904172809 | 74 | 249 | 7.8 | 17.4 | 0.00 | 0.00 | 0.00 | 25 | 932.5 |
| 20260904172308 | 74 | 192 | 7.8 | 20.0 | 0.00 | 0.00 | 0.00 | 25 | 932.3 |
| 20260904171804 | 74 | 160 | 5.2 | 13.9 | 0.00 | 0.00 | 0.00 | 27 | 932.5 |
| 20260904171259 | 73 | 255 | 1.7 | 12.2 | 0.00 | 0.00 | 0.00 | 26 | 932.3 |
| 20260904170755 | 74 | 193 | 7.0 | 11.3 | 0.00 | 0.00 | 0.00 | 26 | 932.5 |
| 20260904170251 | 73 | 242 | 6.1 | 12.2 | 0.00 | 0.00 | 0.00 | 26 | 932.6 |
| 20260904165750 | 73 | 196 | 1.7 | 9.6 | 0.00 | 0.00 | 0.00 | 26 | 932.3 |
| 20260904165244 | 73 | 228 | 9.6 | 11.3 | 0.00 | 0.00 | 0.00 | 26 | 932.4 |
| 20260904164738 | 73 | 29 | 0.0 | 13.9 | 0.00 | 0.00 | 0.00 | 27 | 932.5 |
| 20260904164234 | 72 | 191 | 6.1 | 11.3 | 0.00 | 0.00 | 0.00 | 27 | 932.6 |
| 20260904163730 | 72 | 234 | 7.0 | 11.3 | 0.00 | 0.00 | 0.00 | 26 | 932.6 |
| 20260904163225 | 72 | 253 | 5.2 | 15.6 | 0.00 | 0.00 | 0.00 | 27 | 932.6 |
| 20260904162724 | 72 | 213 | 7.8 | 12.2 | 0.00 | 0.00 | 0.00 | 26 | 932.4 |
| 20260904162219 | 71 | 177 | 9.6 | 13.0 | 0.00 | 0.00 | 0.00 | 27 | 932.4 |
| 20260904161714 | 71 | 243 | 7.0 | 17.4 | 0.00 | 0.00 | 0.00 | 27 | 932.5 |
| 20260904161210 | 71 | 250 | 8.7 | 17.4 | 0.00 | 0.00 | 0.00 | 26 | 932.7 |
| 20260904160705 | 70 | 235 | 0.0 | 12.2 | 0.00 | 0.00 | 0.00 | 27 | 932.4 |
| 20260904160201 | 70 | 221 | 3.5 | 11.3 | 0.00 | 0.00 | 0.00 | 27 | 932.6 |
| 20260904155701 | 70 | 215 | 4.3 | 13.0 | 0.00 | 0.00 | 0.00 | 27 | 932.4 |
| 20260904155155 | 69 | 193 | 4.3 | 5.2 | 0.00 | 0.00 | 0.00 | 30 | 932.6 |
| 20260904154653 | 69 | 233 | 1.7 | 7.8 | 0.00 | 0.00 | 0.00 | 29 | 932.5 |
| 20260904154153 | 69 | 188 | 6.1 | 7.0 | 0.00 | 0.00 | 0.00 | 28 | 932.5 |
| 20260904153649 | 69 | 187 | 0.0 | 6.1 | 0.00 | 0.00 | 0.00 | 30 | 932.8 |
| 20260904153144 | 68 | 201 | 7.0 | 9.6 | 0.00 | 0.00 | 0.00 | 28 | 932.8 |
| 20260904152641 | 67 | 180 | 2.6 | 9.6 | 0.00 | 0.00 | 0.00 | 30 | 932.7 |
| 20260904152136 | 64 | 13 | 0.0 | 0.0 | 0.00 | 0.00 | 0.00 | 39 | 932.7 |
| 20260904151630 | 64 | 67 | 0.0 | 0.0 | 0.00 | 0.00 | 0.00 | 42 | 932.7 |
| 20260904151129 | 65 | 61 | 0.0 | 0.0 | 0.00 | 0.00 | 0.00 | 41 | 932.8 |
| 20260904150625 | 64 | 58 | 0.0 | 0.0 | 0.00 | 0.00 | 0.00 | 42 | 932.8 |
| 20260904150120 | 64 | 84 | 0.0 | 0.0 | 0.00 | 0.00 | 0.00 | 43 | 932.9 |
| 20260904145618 | 62 | 59 | 0.0 | 0.0 | 0.00 | 0.00 | 0.00 | 44 | 933.1 |
| 20260904145114 | 60 | 41 | 0.0 | 0.0 | 0.00 | 0.00 | 0.00 | 46 | 933.2 |
| 20260904144609 | 59 | 32 | 0.0 | 0.0 | 0.00 | 0.00 | 0.00 | 49 | 933.3 |
| 20260904144105 | 58 | 90 | 0.0 | 0.0 | 0.00 | 0.00 | 0.00 | 50 | 933.4 |
| 20260904143601 | 58 | 88 | 0.0 | 0.0 | 0.00 | 0.00 | 0.00 | 49 | 933.5 |
| 20260904143057 | 58 | 71 | 0.0 | 0.0 | 0.00 | 0.00 | 0.00 | 50 | 933.4 |
| 20260904142554 | 56 | 70 | 0.0 | 0.0 | 0.00 | 0.00 | 0.00 | 50 | 933.4 |
| 20260904142053 | 55 | 62 | 0.0 | 0.0 | 0.00 | 0.00 | 0.00 | 51 | 933.5 |
| 20260904141549 | 53 | 99 | 0.0 | 0.0 | 0.00 | 0.00 | 0.00 | 53 | 933.4 |
| 20260904141044 | 52 | 123 | 0.0 | 0.0 | 0.00 | 0.00 | 0.00 | 55 | 933.1 |
| 20260904140539 | 52 | 131 | 0.0 | 0.0 | 0.00 | 0.00 | 0.00 | 55 | 932.3 |
| 20260904140033 | 52 | 62 | 0.0 | 0.0 | 0.00 | 0.00 | 0.00 | 54 | 931.6 |
| 20260904135533 | 51 | 49 | 0.0 | 0.0 | 0.00 | 0.00 | 0.00 | 58 | 931.7 |
| 20260904135029 | 50 | 83 | 0.0 | 0.0 | 0.00 | 0.00 | 0.00 | 59 | 931.6 |
| 20260904134524 | 50 | 92 | 0.0 | 0.0 | 0.00 | 0.00 | 0.00 | 59 | 931.3 |
| 20260904134019 | 49 | 90 | 0.0 | 0.0 | 0.00 | 0.00 | 0.00 | 60 | 931.2 |
| 20260904133514 | 48 | 65 | 0.0 | 0.0 | 0.00 | 0.00 | 0.00 | 62 | 931.1 |
| 20260904133010 | 48 | 75 | 0.0 | 0.0 | 0.00 | 0.00 | 0.00 | 63 | 931.1 |
| 20260904132510 | 47 | 50 | 0.0 | 0.0 | 0.00 | 0.00 | 0.00 | 65 | 931.2 |
| 20260904132009 | 45 | 53 | 0.0 | 0.0 | 0.00 | 0.00 | 0.00 | 68 | 931.1 |
| 20260904131504 | 44 | 47 | 0.0 | 0.0 | 0.00 | 0.00 | 0.00 | 70 | 930.9 |
| 20260904131000 | 44 | 73 | 0.0 | 0.0 | 0.00 | 0.00 | 0.00 | 71 | 931.0 |
| 20260904130459 | 44 | 113 | 0.0 | 0.0 | 0.00 | 0.00 | 0.00 | 71 | 931.0 |
| 20260904125954 | 45 | 118 | 0.0 | 0.0 | 0.00 | 0.00 | 0.00 | 70 | 930.4 |
| 20260904125450 | 45 | 64 | 0.0 | 0.0 | 0.00 | 0.00 | 0.00 | 69 | 930.5 |
| 20260904124950 | 45 | 74 | 0.0 | 0.0 | 0.00 | 0.00 | 0.00 | 68 | 930.4 |
| 20260904124446 | 45 | 63 | 0.0 | 0.0 | 0.00 | 0.00 | 0.00 | 68 | 930.5 |
| 20260904123942 | 46 | 106 | 0.0 | 0.0 | 0.00 | 0.00 | 0.00 | 68 | 930.4 |
| 20260904123441 | 46 | 61 | 0.0 | 0.0 | 0.00 | 0.00 | 0.00 | 67 | 930.4 |
| 20260904122937 | 46 | 58 | 0.0 | 0.0 | 0.00 | 0.00 | 0.00 | 67 | 930.5 |
| 20260904122437 | 46 | 88 | 0.0 | 0.0 | 0.00 | 0.00 | 0.00 | 67 | 930.3 |
| 20260904121931 | 46 | 57 | 0.0 | 0.0 | 0.00 | 0.00 | 0.00 | 66 | 930.2 |
| 20260904121428 | 46 | 88 | 0.0 | 0.0 | 0.00 | 0.00 | 0.00 | 67 | 930.2 |
| 20260904120924 | 47 | 57 | 0.0 | 0.0 | 0.00 | 0.00 | 0.00 | 66 | 930.3 |
| 20260904120420 | 46 | 68 | 0.0 | 0.0 | 0.00 | 0.00 | 0.00 | 67 | 930.4 |
| 20260904115915 | 47 | 52 | 0.0 | 0.0 | 0.00 | 0.00 | 0.00 | 66 | 930.2 |
| 20260904115411 | 47 | 52 | 0.0 | 0.0 | 0.00 | 0.00 | 0.00 | 65 | 930.2 |
| 20260904114905 | 48 | 51 | 0.0 | 0.0 | 0.00 | 0.00 | 0.00 | 64 | 930.0 |
| 20260904114405 | 47 | 81 | 0.0 | 0.0 | 0.00 | 0.00 | 0.00 | 64 | 929.7 |
| 20260904113901 | 46 | 75 | 0.0 | 0.0 | 0.00 | 0.00 | 0.00 | 69 | 929.9 |
| 20260904113400 | 45 | 83 | 0.0 | 0.0 | 0.00 | 0.00 | 0.00 | 71 | 929.7 |
| 20260904112859 | 45 | 83 | 0.0 | 0.0 | 0.00 | 0.00 | 0.00 | 72 | 930.0 |
| 20260904112355 | 45 | 79 | 0.0 | 0.0 | 0.00 | 0.00 | 0.00 | 72 | 929.7 |
| 20260904111851 | 45 | 55 | 0.0 | 0.0 | 0.00 | 0.00 | 0.00 | 72 | 929.7 |
| 20260904111346 | 46 | 39 | 0.0 | 0.0 | 0.00 | 0.00 | 0.00 | 70 | 929.7 |
| 20260904110842 | 46 | 53 | 0.0 | 0.0 | 0.00 | 0.00 | 0.00 | 69 | 929.9 |
| 20260904110341 | 47 | 79 | 0.0 | 0.0 | 0.00 | 0.00 | 0.00 | 69 | 929.6 |
| 20260904105841 | 47 | 54 | 0.0 | 0.0 | 0.00 | 0.00 | 0.00 | 69 | 929.6 |
| 20260904105336 | 46 | 55 | 0.0 | 0.0 | 0.00 | 0.00 | 0.00 | 70 | 929.5 |
| 20260904104831 | 46 | 63 | 0.0 | 0.0 | 0.00 | 0.00 | 0.00 | 70 | 929.6 |
| 20260904104327 | 46 | 59 | 0.0 | 0.0 | 0.00 | 0.00 | 0.00 | 70 | 929.9 |
| 20260904103824 | 46 | 32 | 0.0 | 0.0 | 0.00 | 0.00 | 0.00 | 71 | 929.4 |
| 20260904103323 | 46 | 66 | 0.0 | 0.0 | 0.00 | 0.00 | 0.00 | 71 | 929.2 |
| 20260904102819 | 46 | 115 | 0.0 | 0.0 | 0.00 | 0.00 | 0.00 | 72 | 929.3 |
| 20260904102315 | 46 | 76 | 0.0 | 0.9 | 0.00 | 0.00 | 0.00 | 72 | 929.2 |
| 20260904101810 | 46 | 70 | 0.0 | 0.0 | 0.00 | 0.00 | 0.00 | 71 | 929.2 |
| 20260904101307 | 48 | 53 | 0.0 | 0.0 | 0.00 | 0.00 | 0.00 | 68 | 929.2 |
| 20260904100802 | 48 | 104 | 0.0 | 0.0 | 0.00 | 0.00 | 0.00 | 69 | 929.3 |
| 20260904100258 | 48 | 80 | 0.0 | 0.0 | 0.00 | 0.00 | 0.00 | 69 | 929.4 |
| 20260904095758 | 48 | 79 | 0.0 | 0.0 | 0.00 | 0.00 | 0.00 | 68 | 929.3 |
| 20260904095252 | 48 | 119 | 0.0 | 0.0 | 0.00 | 0.00 | 0.00 | 69 | 929.2 |
| 20260904094747 | 48 | 107 | 0.0 | 0.9 | 0.00 | 0.00 | 0.00 | 69 | 929.2 |
| 20260904094242 | 48 | 66 | 0.0 | 0.0 | 0.00 | 0.00 | 0.00 | 69 | 929.1 |
| 20260904093739 | 48 | 111 | 0.0 | 0.0 | 0.00 | 0.00 | 0.00 | 68 | 929.2 |
| 20260904093238 | 48 | 125 | 0.0 | 0.0 | 0.00 | 0.00 | 0.00 | 68 | 929.1 |
| 20260904092734 | 48 | 61 | 0.0 | 0.0 | 0.00 | 0.00 | 0.00 | 68 | 928.9 |
| 20260904092231 | 48 | 85 | 0.0 | 0.0 | 0.00 | 0.00 | 0.00 | 69 | 929.1 |
| 20260904091726 | 48 | 45 | 0.0 | 0.0 | 0.00 | 0.00 | 0.00 | 68 | 929.4 |
| 20260904091221 | 49 | 49 | 0.0 | 0.0 | 0.00 | 0.00 | 0.00 | 68 | 929.1 |
| 20260904090717 | 49 | 86 | 0.0 | 0.0 | 0.00 | 0.00 | 0.00 | 67 | 929.1 |
| 20260904090212 | 49 | 66 | 0.0 | 0.0 | 0.00 | 0.00 | 0.00 | 66 | 929.1 |
| 20260904085707 | 49 | 104 | 0.0 | 0.0 | 0.00 | 0.00 | 0.00 | 66 | 928.9 |
| 20260904085207 | 48 | 61 | 0.0 | 0.0 | 0.00 | 0.00 | 0.00 | 67 | 928.8 |